GW7494 Weather Reports


time (UTC)temp
F
wind
direction
speed
knots
gust
knots
rain 1hr
in
rain 24hr
in
rain mn
in
humidity
%
barometer
mb
20260905183202 67 242 2.6 5.2 0.00 0.04 0.04 46 993.8
20260905182703 67 262 2.6 5.2 0.00 0.04 0.04 46 993.8
20260905182202 67 246 2.6 6.1 0.00 0.04 0.04 45 993.8
20260905181702 68 246 3.5 7.0 0.00 0.04 0.04 45 993.7
20260905181202 68 262 2.6 4.3 0.00 0.04 0.04 44 993.7
20260905180702 68 219 2.6 6.1 0.00 0.04 0.04 44 993.6
20260905180201 68 260 2.6 4.3 0.00 0.04 0.04 43 993.6
20260905175701 68 273 2.6 7.8 0.00 0.04 0.04 43 993.5
20260905175059 68 239 2.6 8.7 0.00 0.04 0.04 43 993.4
20260905174559 68 255 2.6 5.2 0.00 0.04 0.04 43 993.4
20260905174059 68 250 4.3 9.6 0.00 0.04 0.04 42 993.3
20260905173559 69 272 2.6 4.3 0.00 0.04 0.04 42 993.3
20260905173058 69 267 2.6 7.8 0.00 0.04 0.04 43 993.3
20260905172457 69 263 2.6 6.1 0.00 0.04 0.04 43 993.3
20260905171957 69 246 3.5 10.4 0.00 0.04 0.04 43 993.2
20260905171458 69 247 1.7 4.3 0.00 0.04 0.04 43 993.2
20260905170957 69 243 2.6 3.5 0.00 0.04 0.04 43 993.1
20260905170458 69 240 2.6 5.2 0.00 0.04 0.04 43 993.1
20260905165957 69 247 2.6 4.3 0.00 0.04 0.04 42 993.1
20260905165457 69 255 2.6 7.8 0.00 0.04 0.04 42 993.0
20260905164856 69 256 3.5 6.1 0.00 0.04 0.04 42 993.0
20260905164356 69 249 3.5 7.8 0.00 0.04 0.04 42 993.0
20260905163856 69 239 2.6 5.2 0.00 0.04 0.04 41 992.9
20260905163256 70 244 2.6 6.1 0.00 0.04 0.04 41 992.9
20260905162555 70 232 2.6 5.2 0.00 0.04 0.04 41 992.8
20260905162055 70 239 3.5 6.1 0.00 0.04 0.04 41 992.8
20260905161454 70 255 2.6 7.8 0.00 0.04 0.04 41 992.7
20260905160953 70 251 3.5 6.1 0.00 0.04 0.04 41 992.5
20260905160454 70 250 4.3 8.7 0.00 0.04 0.04 42 992.5
20260905155953 70 243 3.5 6.1 0.00 0.04 0.04 42 992.4
20260905155453 71 217 3.5 6.1 0.00 0.04 0.04 42 992.4
20260905154952 71 266 4.3 8.7 0.00 0.04 0.04 41 992.4
20260905154452 71 212 3.5 8.7 0.00 0.04 0.04 41 992.3
20260905153952 72 246 5.2 9.6 0.00 0.04 0.04 41 992.3
20260905153453 72 294 2.6 5.2 0.00 0.04 0.04 41 992.3
20260905152952 72 260 5.2 10.4 0.00 0.04 0.04 41 992.2
20260905152452 72 244 4.3 9.6 0.00 0.04 0.04 40 992.1
20260905151952 72 275 3.5 6.1 0.00 0.04 0.04 40 992.1
20260905151451 72 249 3.5 8.7 0.00 0.04 0.04 40 992.0
20260905150952 72 272 4.3 9.6 0.00 0.04 0.04 39 992.1
20260905150252 72 217 4.3 8.7 0.00 0.04 0.04 39 992.1
20260905145751 72 275 4.3 8.7 0.00 0.04 0.04 39 992.0
20260905145050 72 280 3.5 6.1 0.00 0.04 0.04 39 992.0
20260905144550 72 266 3.5 7.8 0.00 0.04 0.04 39 991.9
20260905144050 72 272 4.3 8.7 0.00 0.04 0.04 41 991.9
20260905143449 72 291 4.3 7.8 0.00 0.04 0.04 41 991.9
20260905142949 72 276 5.2 9.6 0.00 0.04 0.04 41 991.9
20260905142448 72 233 4.3 9.6 0.00 0.04 0.04 41 991.9
20260905141948 72 230 4.3 7.8 0.00 0.04 0.04 40 991.9
20260905141449 73 237 4.3 8.7 0.00 0.04 0.04 38 991.8
20260905140948 72 262 4.3 9.6 0.00 0.04 0.04 37 991.9
20260905140448 72 246 4.3 9.6 0.00 0.04 0.04 36 991.9
20260905135948 72 269 3.5 7.0 0.00 0.04 0.04 37 992.0
20260905135247 72 248 3.5 7.0 0.00 0.04 0.04 40 991.9
20260905134747 71 276 3.5 5.2 0.00 0.04 0.04 41 992.0
20260905134246 71 274 4.3 9.6 0.00 0.04 0.04 41 991.9
20260905133746 72 263 3.5 8.7 0.00 0.04 0.04 39 992.0
20260905133045 73 221 5.2 9.6 0.00 0.04 0.04 37 992.0
20260905132546 73 240 3.5 8.7 0.00 0.04 0.04 38 991.9
20260905132045 73 234 3.5 6.1 0.00 0.04 0.04 38 992.0
20260905131444 72 228 4.3 9.6 0.00 0.04 0.04 38 991.9
20260905130844 72 221 4.3 8.7 0.00 0.04 0.04 40 992.1
20260905130356 72 253 3.5 6.1 0.00 0.04 0.04 41 992.2
20260905125843 72 242 3.5 8.7 0.00 0.04 0.04 43 992.1
20260905125343 71 265 4.3 8.7 0.00 0.04 0.04 43 992.1
20260905124842 71 262 4.3 8.7 0.00 0.04 0.04 43 992.2
20260905124242 71 283 4.3 8.7 0.00 0.04 0.04 43 992.3
20260905123641 70 289 4.3 8.7 0.00 0.04 0.04 45 992.3
20260905123141 70 264 4.3 8.7 0.00 0.04 0.04 46 992.4
20260905122540 70 262 5.2 9.6 0.00 0.04 0.04 46 992.4
20260905122040 70 290 3.5 5.2 0.00 0.04 0.04 48 992.3
20260905121540 71 273 3.5 6.1 0.00 0.04 0.04 47 992.4
20260905121042 71 245 3.5 8.7 0.00 0.04 0.04 46 992.5
20260905120539 71 227 4.3 9.6 0.00 0.04 0.04 46 992.4
20260905120039 70 275 3.5 8.7 0.00 0.04 0.04 47 992.4
20260905115539 70 217 5.2 10.4 0.00 0.04 0.04 48 992.4
20260905115039 70 275 4.3 8.7 0.00 0.04 0.04 48 992.5
20260905114538 69 264 3.5 9.6 0.00 0.04 0.04 49 992.4
20260905113938 70 291 2.6 9.6 0.00 0.04 0.04 49 992.4
20260905113337 70 246 4.3 8.7 0.00 0.04 0.04 48 992.5
20260905112838 70 257 3.5 8.7 0.00 0.04 0.04 49 992.4
20260905112337 70 298 2.6 4.3 0.00 0.04 0.04 50 992.4
20260905111837 69 261 4.3 7.8 0.00 0.04 0.04 51 992.5
20260905111337 69 227 4.3 9.6 0.00 0.04 0.04 50 992.5
20260905110837 69 266 4.3 8.7 0.00 0.04 0.04 51 992.5
20260905110337 69 291 3.5 6.1 0.00 0.04 0.04 54 992.4
20260905105837 69 278 4.3 7.8 0.00 0.04 0.04 54 992.5
20260905105236 69 269 4.3 8.7 0.00 0.04 0.04 52 992.4
20260905104736 69 268 4.3 8.7 0.00 0.04 0.04 52 992.4
20260905104136 69 265 3.5 6.1 0.00 0.04 0.04 52 992.4
20260905103636 69 251 3.5 7.8 0.00 0.04 0.04 53 992.4
20260905103136 69 274 4.3 9.6 0.00 0.04 0.04 52 992.4
20260905102635 68 227 4.3 10.4 0.00 0.04 0.04 53 992.4
20260905102135 69 247 4.3 9.6 0.00 0.04 0.04 53 992.4
20260905101434 68 245 5.2 10.4 0.00 0.04 0.04 53 992.4
20260905100833 69 238 4.3 8.7 0.00 0.04 0.04 54 992.4
20260905100333 68 245 4.3 7.8 0.00 0.04 0.04 54 992.3
20260905095732 68 235 4.3 8.7 0.00 0.04 0.04 55 992.3
20260905095232 67 244 3.5 7.8 0.00 0.04 0.04 57 992.3
20260905094732 67 249 3.5 8.7 0.00 0.04 0.04 56 992.4
20260905094232 67 232 4.3 8.7 0.00 0.04 0.04 55 992.4
20260905093732 67 232 3.5 6.1 0.00 0.04 0.04 59 992.5
20260905093232 66 239 4.3 6.1 0.00 0.04 0.04 62 992.4
20260905092732 66 253 4.3 10.4 0.00 0.04 0.04 61 992.4
20260905092231 66 254 3.5 8.7 0.00 0.04 0.04 61 992.5
20260905091429 66 234 3.5 8.7 0.00 0.04 0.04 62 992.6
20260905090829 66 236 4.3 8.7 0.00 0.04 0.04 60 992.5
20260905090329 67 230 3.5 7.8 0.00 0.04 0.04 59 992.4
20260905085829 67 257 4.3 7.8 0.00 0.04 0.04 58 992.4
20260905085328 66 238 4.3 8.7 0.00 0.04 0.04 59 992.4
20260905084828 66 256 3.5 8.7 0.00 0.04 0.04 61 992.4
20260905084328 65 249 4.3 8.7 0.00 0.04 0.04 63 992.3
20260905083828 65 277 3.5 8.7 0.00 0.04 0.04 63 992.3
20260905083328 65 286 4.3 9.6 0.00 0.04 0.04 64 992.1
20260905082827 65 232 2.6 5.2 0.00 0.04 0.04 65 992.1
20260905082327 65 237 4.3 9.6 0.00 0.04 0.04 66 992.1
20260905081827 65 252 4.3 8.7 0.00 0.04 0.04 67 992.2
20260905081327 64 231 3.5 6.1 0.00 0.04 0.04 68 992.2
20260905080727 63 253 1.7 5.2 0.00 0.04 0.04 71 992.3
20260905080126 63 240 3.5 7.0 0.00 0.04 0.04 72 992.3
20260905075626 63 250 3.5 5.2 0.00 0.04 0.04 73 992.3
20260905075126 63 250 2.6 5.2 0.00 0.04 0.04 73 992.3
20260905074626 62 256 2.6 5.2 0.00 0.04 0.04 75 992.4
20260905074125 62 228 2.6 4.3 0.00 0.04 0.04 76 992.3
20260905073633 61 237 1.7 7.0 0.00 0.04 0.04 77 992.3
20260905073125 61 226 1.7 3.5 0.00 0.04 0.04 79 992.2
20260905072625 61 245 2.6 5.2 0.00 0.04 0.04 80 992.2
20260905072125 61 238 2.6 6.1 0.00 0.04 0.04 79 992.2
20260905071625 61 239 2.6 6.1 0.00 0.04 0.04 78 992.2
20260905071125 61 253 1.7 3.5 0.00 0.04 0.04 78 992.2
20260905070625 61 244 2.6 5.2 0.00 0.04 0.04 77 992.2
20260905070125 61 254 1.7 2.6 0.00 0.04 0.04 76 992.1
20260905065524 60 242 2.6 5.2 0.00 0.04 0.04 76 992.0
20260905065024 60 243 1.7 4.3 0.00 0.04 0.04 76 991.9
20260905064423 60 247 2.6 4.3 0.00 0.04 0.04 76 991.7
20260905063923 60 263 1.7 5.2 0.00 0.04 0.04 76 991.8
20260905063423 60 248 1.7 3.5 0.00 0.04 0.04 77 991.8
20260905062923 60 262 1.7 4.3 0.00 0.04 0.04 78 991.8
20260905062422 60 234 2.6 3.5 0.00 0.04 0.04 79 991.7
20260905061922 60 231 1.7 3.5 0.00 0.04 0.04 79 991.6
20260905061422 60 241 1.7 4.3 0.00 0.04 0.04 79 991.6
20260905060821 60 237 0.9 2.6 0.00 0.04 0.04 79 991.4
20260905060220 60 220 0.9 2.6 0.00 0.04 0.04 78 991.4
20260905055720 60 239 1.7 4.3 0.00 0.04 0.04 78 991.5
20260905055220 60 244 1.7 3.5 0.00 0.04 0.04 78 991.4
20260905054720 60 252 1.7 3.5 0.00 0.04 0.04 77 991.3
20260905054220 60 244 0.9 2.6 0.00 0.04 0.04 77 991.3
20260905053619 60 256 1.7 3.5 0.00 0.04 0.04 77 991.2
20260905053119 60 252 1.7 2.6 0.00 0.04 0.04 77 991.2
20260905052619 60 246 1.7 3.5 0.00 0.04 0.04 76 990.7
20260905052119 60 219 1.7 3.5 0.00 0.04 0.04 77 990.7
20260905051618 60 245 2.6 4.3 0.00 0.04 0.04 77 991.0
20260905051118 60 264 0.9 3.5 0.00 0.04 0.04 77 991.0
20260905050618 60 250 1.7 3.5 0.00 0.04 0.04 76 991.1
20260905050118 60 241 1.7 3.5 0.00 0.04 0.04 77 991.0
20260905045618 60 290 1.7 5.2 0.01 0.04 0.04 76 991.1
20260905045017 61 278 2.6 6.1 0.01 0.04 0.04 74 991.1
20260905044417 61 271 1.7 3.5 0.01 0.04 0.04 73 990.5
20260905043916 61 236 2.6 5.2 0.01 0.04 0.04 73 990.2
20260905043416 61 237 2.6 4.3 0.01 0.04 0.04 74 990.2
20260905042916 61 262 1.7 4.3 0.01 0.04 0.04 74 990.4
20260905042416 61 266 1.7 4.3 0.01 0.04 0.04 74 990.3
20260905041916 61 241 1.7 3.5 0.01 0.04 0.04 75 990.2
20260905041416 61 257 2.6 5.2 0.01 0.04 0.04 75 990.2
20260905040915 61 269 1.7 5.2 0.01 0.04 0.04 76 990.1
20260905040415 61 258 2.6 6.1 0.01 0.04 0.04 76 990.3
20260905035915 62 234 2.6 6.1 0.01 0.04 0.04 77 990.2
20260905035415 62 252 1.7 3.5 0.00 0.03 0.03 77 990.2
20260905034915 62 273 1.7 3.5 0.00 0.03 0.03 76 990.2
20260905034415 62 230 3.5 5.2 0.00 0.03 0.03 76 989.7
20260905033915 62 228 3.5 6.1 0.00 0.03 0.03 76 989.7
20260905033415 62 229 2.6 5.2 0.00 0.03 0.03 78 989.7
20260905032914 62 232 1.7 4.3 0.00 0.03 0.03 79 989.6
20260905032414 61 264 1.7 5.2 0.00 0.03 0.03 80 989.5
20260905031914 61 240 1.7 3.5 0.00 0.03 0.03 81 989.5
20260905031414 62 250 0.9 3.5 0.00 0.03 0.03 81 989.5
20260905030914 61 240 1.7 3.5 0.00 0.03 0.03 81 989.4
20260905030414 61 226 0.9 2.6 0.00 0.03 0.03 82 989.2
20260905025713 61 255 0.9 3.5 0.00 0.03 0.03 82 989.3
20260905025213 61 198 0.9 2.6 0.00 0.03 0.03 81 989.2
20260905024512 62 222 0.9 1.7 0.00 0.03 0.03 81 988.8
20260905023911 62 223 0.9 3.5 0.00 0.03 0.03 81 989.1
20260905023411 62 206 0.9 1.7 0.00 0.03 0.03 80 989.0
20260905022911 62 208 1.7 2.6 0.00 0.03 0.03 80 989.1
20260905022411 62 210 0.9 2.6 0.00 0.03 0.03 80 989.1
20260905021910 62 237 1.7 4.3 0.00 0.03 0.03 79 989.2
20260905021410 62 277 0.9 3.5 0.00 0.03 0.03 80 989.3
20260905020808 62 303 0.9 2.6 0.00 0.03 0.03 80 989.3
20260905020309 62 302 3.5 7.0 0.00 0.03 0.03 79 989.3
20260905015809 62 258 2.6 6.1 0.00 0.03 0.03 81 989.8
20260905015208 62 276 1.7 4.3 0.00 0.03 0.03 81 989.6
20260905014607 62 254 1.7 3.5 0.01 0.03 0.03 82 989.4
20260905014107 62 264 1.7 5.2 0.01 0.03 0.03 82 989.3
20260905013607 62 287 0.9 2.6 0.03 0.03 0.03 82 989.3
20260905013107 62 273 0.9 1.7 0.03 0.03 0.03 83 989.2
20260905012607 62 305 0.0 1.7 0.03 0.03 0.03 83 989.1
20260905012107 62 308 0.0 0.0 0.03 0.03 0.03 82 988.9
20260905011607 62 255 0.9 2.6 0.03 0.03 0.03 82 988.8
20260905011106 62 244 0.9 1.7 0.03 0.03 0.03 81 988.8
20260905010606 62 299 0.9 3.5 0.03 0.03 0.03 81 988.9
20260905010106 62 264 1.7 3.5 0.03 0.03 0.03 81 988.9
20260905005605 62 232 1.7 3.5 0.03 0.03 0.03 81 988.9
20260905005105 62 265 2.6 5.2 0.03 0.03 0.03 79 988.9
20260905004606 62 259 2.6 7.0 0.02 0.02 0.02 78 989.0
20260905004105 63 281 2.6 6.1 0.02 0.02 0.02 75 989.0
20260905003605 65 287 2.6 5.2 0.00 0.00 0.00 71 988.9
20260905003105 65 272 1.7 5.2 0.00 0.00 0.00 69 988.9
20260905002504 65 307 3.5 7.0 0.00 0.00 0.00 69 988.3
20260905001904 65 313 2.6 5.2 0.00 0.00 0.00 68 988.6
20260905001403 65 320 1.7 3.5 0.00 0.00 0.00 67 988.7
20260905000803 65 281 2.6 5.2 0.00 0.00 0.00 67 988.3
20260905000303 66 340 3.5 7.8 0.00 0.00 0.00 65 988.3
20260904235802 66 286 2.6 4.3 0.00 0.00 0.00 65 988.6
20260904235305 66 292 2.6 6.1 0.00 0.00 0.00 64 988.3
20260904234802 66 294 4.3 8.7 0.00 0.00 0.00 64 988.3
20260904234302 66 301 4.3 8.7 0.00 0.00 0.00 63 988.3
20260904233701 66 234 2.6 4.3 0.00 0.00 0.00 63 988.0
20260904233201 67 294 2.6 6.1 0.00 0.00 0.00 63 988.0
20260904232701 67 281 3.5 8.7 0.00 0.00 0.00 63 988.3
20260904232000 67 301 4.3 8.7 0.00 0.00 0.00 62 988.1
20260904231500 67 289 3.5 7.8 0.00 0.00 0.00 61 988.1
20260904230959 68 299 4.3 8.7 0.00 0.00 0.00 61 987.9
20260904230459 68 290 3.5 8.7 0.00 0.00 0.00 61 987.9
20260904225958 68 313 2.6 7.0 0.00 0.00 0.00 60 987.7
20260904225458 68 301 4.3 8.7 0.00 0.00 0.00 60 987.7
20260904224958 68 306 4.3 7.8 0.00 0.00 0.00 59 987.6
20260904224458 68 270 2.6 5.2 0.00 0.00 0.00 58 987.8
20260904223958 69 317 5.2 10.4 0.00 0.00 0.00 58 987.6
20260904223458 69 288 4.3 10.4 0.00 0.00 0.00 57 987.5
20260904222958 69 311 5.2 9.6 0.00 0.00 0.00 57 987.4
20260904222458 69 328 3.5 9.6 0.00 0.00 0.00 57 987.3
20260904221958 70 295 4.3 9.6 0.00 0.00 0.00 60 987.2
20260904221458 70 286 3.5 8.7 0.00 0.00 0.00 63 987.0
20260904220958 70 305 5.2 9.6 0.00 0.00 0.00 63 986.7
20260904220458 71 298 5.2 9.6 0.00 0.00 0.00 63 986.6
20260904215857 71 290 4.3 8.7 0.00 0.00 0.00 62 986.6
20260904215357 72 294 4.3 9.6 0.00 0.00 0.00 62 986.6
20260904214757 72 299 5.2 11.3 0.00 0.00 0.00 61 986.3
20260904214257 72 272 4.3 7.8 0.00 0.00 0.00 60 986.2
20260904213757 73 285 2.6 6.1 0.00 0.00 0.00 60 986.0
20260904213256 73 302 2.6 5.2 0.00 0.00 0.00 59 986.0
20260904212756 74 306 3.5 8.7 0.00 0.00 0.00 58 985.9
20260904212256 75 271 3.5 8.7 0.00 0.00 0.00 56 985.8
20260904211756 75 283 3.5 7.0 0.00 0.00 0.00 54 985.6
20260904211256 75 254 3.5 6.1 0.00 0.00 0.00 54 985.0
20260904210756 75 189 2.6 5.2 0.00 0.00 0.00 55 984.5
20260904210256 75 236 2.6 6.1 0.00 0.00 0.00 55 984.5
20260904205756 74 212 4.3 8.7 0.00 0.00 0.00 55 984.4
20260904205256 74 198 3.5 5.2 0.00 0.00 0.00 55 984.6
20260904204756 74 208 2.6 6.1 0.00 0.00 0.00 56 984.7
20260904204255 74 194 3.5 6.1 0.00 0.00 0.00 56 984.7
20260904203655 74 194 3.5 7.0 0.00 0.00 0.00 56 984.5
20260904203155 74 195 3.5 6.1 0.00 0.00 0.00 56 984.6
20260904202654 74 192 3.5 7.8 0.00 0.00 0.00 55 984.6
20260904202153 74 202 3.5 5.2 0.00 0.00 0.00 55 984.5
20260904201654 74 200 3.5 7.8 0.00 0.00 0.00 55 984.6
20260904201154 74 202 2.6 7.8 0.00 0.00 0.00 56 984.7
20260904200653 73 200 1.7 3.5 0.00 0.00 0.00 57 984.7
20260904200053 73 230 1.7 3.5 0.00 0.00 0.00 59 984.8
20260904195552 73 191 1.7 3.5 0.00 0.00 0.00 59 984.8
20260904195052 73 214 2.6 5.2 0.00 0.00 0.00 59 984.8
20260904194552 73 202 2.6 6.1 0.00 0.00 0.00 59 984.8
20260904193951 73 189 2.6 4.3 0.00 0.00 0.00 59 984.9
20260904193351 73 199 2.6 3.5 0.00 0.00 0.00 59 985.0
20260904192850 74 205 2.6 5.2 0.00 0.00 0.00 58 985.0
20260904192351 74 211 3.5 6.1 0.00 0.00 0.00 58 985.0
20260904191850 74 187 2.6 6.1 0.00 0.00 0.00 58 985.0
20260904191350 74 180 2.6 5.2 0.00 0.00 0.00 58 985.0
20260904190850 74 211 3.5 5.2 0.00 0.00 0.00 58 985.1
20260904190349 74 204 3.5 7.8 0.00 0.00 0.00 57 985.2
20260904185850 74 195 3.5 5.2 0.00 0.00 0.00 57 985.3
20260904185350 74 203 3.5 5.2 0.00 0.00 0.00 57 985.3
20260904184849 74 197 2.6 5.2 0.00 0.00 0.00 58 985.3
20260904184248 74 196 1.7 3.5 0.00 0.00 0.00 59 985.4
20260904183748 74 180 2.6 5.2 0.00 0.00 0.00 59 985.5